{"data":{"norad_id":54075,"intl_designator":"2022-136AA","name":"STARLINK-5212","alt_names":[],"object_type":"PAYLOAD","status":"ACTIVE","operator":null,"country":"US","launch_date":"2022-10-20","launch_site_code":"AFETR","launch_vehicle":null,"mission":null,"orbit_class":"UNKNOWN","rcs_meters":null,"size_class":null,"mass_kg":null,"dimensions":null,"purposes":["comms"],"wikipedia_slug":null,"has_3d_model":false,"image_url":null,"decayed_at":null,"tle_current":{"epoch":"2026-05-25T00:36:03.923424Z","epoch_age_seconds":69274,"freshness":"FRESH","line1":"1 54075U 22136AA  26145.02504541  .00005499  00000+0  36362-3 0  9993","line2":"2 54075  53.2140 356.0548 0001292  95.3244 264.7896 15.08812277198449","mean_motion":15.08812277,"eccentricity":0.0001292,"inclination_deg":53.214,"raan_deg":356.0548,"arg_perigee_deg":95.3244,"mean_anomaly_deg":264.7896,"bstar":0.00036362,"rev_number":19844,"period_min":95.439308252659,"perigee_km":538.93432728724,"apogee_km":540.72192947642,"semimajor_km":6917.9651283818,"source":"CELESTRAK","updated_at":"2026-05-25T13:38:17.652209Z"}}}